Goderich, Ontario

9:28 AM EDT on April 26, 2017 (GMT -0400)
Goderich

Weather History for CWGD - November, 2013

Change the Weather History Date:

Thursday, November 14, 2013

  Actual Average (KP58) Record (KP58)
Temperature  
Mean Temperature 40 °F -  
Max Temperature 44 °F 44 °F 57 °F (1999)
Min Temperature 36 °F 34 °F 26 °F (1996)
Degree Days  
Heating Degree Days 25    
Moisture  
Dew Point 29 °F    
Average Humidity 62    
Maximum Humidity 73    
Minimum Humidity 44    
Precipitation  
Precipitation 0.06 in - - ()
Sea Level Pressure  
Sea Level Pressure 30.01 in    
Wind  
Wind Speed 18 mph ()    
Max Wind Speed 23 mph    
Max Gust Speed 33 mph    
Averages and records for this station are not official NWS values.
T = Trace of Precipitation, MM = Missing Value Source: Averaged Metar Reports

Daily Weather History Graph

Daily Weather History Graph

Search for Another Location

Airport or City:

Trip Planner

Search our weather history database for the weather conditions in past years. The results will help you decide how hot, cold, wet, or windy it might be!

Date:

Astronomy

Nov. 14, 2013 Rise Set
Actual Time 7:20 AM EST 5:01 PM EST
Civil Twilight 6:49 AM EST 5:32 PM EST
Nautical Twilight 6:14 AM EST 6:07 PM EST
Astronomical Twilight 5:40 AM EST 6:41 PM EST
Moon 3:27 PM EST (11/14) 4:08 AM EST (11/14)
Length of Visible Light 10h 43m
Length of Day
9h 41m
Waxing Gibbous, 91% of the Moon is Illuminated
Nov 14
Waxing Gibbous
Nov 17
Full
Nov 25
Last Quarter
Dec 2
New
Dec 9
First Quarter

Hourly Weather History & Observations

Time (EST) Temp. Windchill Dew Point Humidity Pressure Visibility Wind Dir Wind Speed Gust Speed Precip Events Conditions
12:00 AM 37.0 °F 25.9 °F 24.6 °F 61% 30.08 in - SW 23.0 mph 33.4 mph N/A   Unknown
1:00 AM 37 °F - 23 °F 44% 30.09 in - SW 21.9 mph - -  
1:00 AM 37.2 °F 26.4 °F 23.0 °F 56% 30.09 in - SW 21.9 mph 31.1 mph N/A   Unknown
2:00 AM 37.0 °F 26.4 °F 23.5 °F 58% 30.09 in - SW 20.7 mph 29.9 mph N/A   Unknown
3:00 AM 36.7 °F 25.4 °F 24.8 °F 62% 30.07 in - SW 23.0 mph 31.1 mph N/A   Unknown
4:00 AM 37.2 °F 26.1 °F 26.2 °F 65% 30.07 in - SW 23.0 mph 29.9 mph N/A   Unknown
5:00 AM 37.2 °F 26.4 °F 27.0 °F 66% 30.06 in - SW 21.9 mph 32.2 mph N/A   Unknown
6:00 AM 37.2 °F 26.7 °F 27.7 °F 68% 30.06 in - SW 20.7 mph 29.9 mph N/A   Unknown
7:00 AM 37 °F - 27 °F 57% 30.05 in - SW 20.7 mph - -  
7:00 AM 37.4 °F 26.9 °F 27.1 °F 66% 30.05 in - SW 20.7 mph 28.8 mph N/A   Unknown
8:00 AM 37.6 °F 27.4 °F 27.1 °F 66% 30.06 in - SW 19.6 mph 27.6 mph N/A   Unknown
9:00 AM 38.1 °F 28.1 °F 27.1 °F 65% 30.05 in - SW 19.6 mph 26.5 mph N/A   Unknown
10:00 AM 38.7 °F 28.6 °F 26.8 °F 62% 30.04 in - SW 20.7 mph 27.6 mph N/A   Unknown
11:00 AM 39.6 °F 29.7 °F 27.7 °F 62% 30.03 in - SW 20.7 mph 29.9 mph N/A   Unknown
12:00 PM 40.8 °F 32.3 °F 30.9 °F 68% 30.00 in - SSW 17.3 mph 25.3 mph N/A   Unknown
1:00 PM 41 °F - 29 °F 51% 29.98 in - SSW 16.1 mph - -  
1:00 PM 41.2 °F 33.0 °F 29.1 °F 62% 29.98 in - SSW 16.1 mph 23.0 mph N/A   Unknown
2:00 PM 41.9 °F 34.6 °F 31.5 °F 66% 29.96 in - SSW 13.8 mph 20.7 mph N/A   Unknown
3:00 PM 42.6 °F 34.3 °F 31.3 °F 64% 29.93 in - SSW 18.4 mph 26.5 mph N/A   Unknown
4:00 PM 43.3 °F 35.5 °F 31.8 °F 64% 29.93 in - SSW 17.3 mph 24.2 mph N/A   Unknown
5:00 PM 43.0 °F 35.4 °F 31.3 °F 63% 29.93 in - SSW 16.1 mph 27.6 mph N/A   Unknown
6:00 PM 43.7 °F 36.0 °F 30.9 °F 61% 29.94 in - SSW 17.3 mph 24.2 mph N/A   Unknown
7:00 PM 44 °F - 33 °F 53% 29.94 in - SSW 18.4 mph - -  
7:00 PM 44.2 °F 36.4 °F 31.5 °F 61% 29.94 in - SSW 18.4 mph 27.6 mph N/A   Unknown
8:00 PM 44.2 °F 36.4 °F 31.5 °F 61% 29.95 in - SSW 18.4 mph 26.5 mph N/A   Unknown
9:00 PM 44.1 °F 36.5 °F 33.8 °F 67% 29.96 in - SSW 17.3 mph 23.0 mph N/A   Unknown
10:00 PM 43.7 °F 36.9 °F 35.4 °F 73% 29.96 in - SSW 13.8 mph 19.6 mph N/A   Unknown
11:00 PM 44.1 °F 36.8 °F 35.4 °F 72% 29.96 in - SSW 16.1 mph - N/A   Unknown